Weather Roundup
Issued by NWS Chicago, IL

Home | Current Version | Previous Version | Text Only | Print | Product List | Glossary Off
Versions: 1 2 3 4 5 6 7 8 9 10 11 12 13 14 15 16 17 18 19 20 21 22 23 24 25 26 27 28 29 30 31 32 33 34 35 36 37 38 39 40 41 42 43 44 45 46 47 48 49 50

000
NZUS59 KLOT 302309
HRRLOT

CHICAGO AREA WEATHER ROUNDUP
NATIONAL WEATHER SERVICE CHICAGO/ROMEOVILLE IL
600 PM CDT SAT JUL 30 2016

NOTE: "FAIR" INDICATES FEW OR NO CLOUDS BELOW 12,000 FEET WITH NO
SIGNIFICANT WEATHER AND/OR OBSTRUCTIONS TO VISIBILITY.

* THESE STATIONS ARE NOT UNDER NWS QUALITY CONTROL. THEY ALSO MAY NOT
  REPORT WEATHER SUCH AS PRECIPITATION OR FOG.

ILZ005-006-012>014-019>023-310000-
NORTHEAST ILLINOIS

CITY           SKY/WX    TMP DP  RH WIND       PRES   REMARKS
OHARE          PTSUNNY   75  64  68 NE12      29.98S
MIDWAY         PTSUNNY   75  64  68 NE14      29.97S
AURORA         MOSUNNY   79  65  62 NE8       29.97S HX  81
LANSING*       PTSUNNY   74  64  70 NE10      29.97F
JOLIET*        SUNNY     80  67  66 NE8       29.96S HX  82
WAUKEGAN       CLOUDY    73  64  73 NE12      30.00S
DUPAGE AIRPORT MOSUNNY   77  64  64 NE12      29.98R
WHEELING       PTSUNNY   73  63  70 NE13      30.00S
KANKAKEE*      CLOUDY    74  68  83 CALM      29.96S
MORRIS*        PTSUNNY   77  67  71 CALM      29.95S
LEWIS AIRPORT* MOSUNNY   77  64  63 NE10      29.97S
NORTHERLY ISL    N/A     73  64  73 N9          N/A
$$

WIZ051-052-058>065-066-070>072-310000-
SOUTHEAST WISCONSIN

CITY           SKY/WX    TMP DP  RH WIND       PRES   REMARKS
MILWAUKEE      PTSUNNY   74  61  63 NE12      30.02S
KENOSHA*       CLOUDY    73  62  68 NE8       30.01S
RACINE*        CLOUDY    72  62  71 N14       30.03S
BURLINGTON     MOSUNNY   75  58  55 E12       30.01S
WAUKESHA       MOSUNNY   73  55  53 E10       30.03S
WEST BEND      SUNNY     73  54  49 NE7       30.03S
$$

INZ001>003-010>013-019-020-310000-
NORTHWEST INDIANA

CITY           SKY/WX    TMP DP  RH WIND       PRES   REMARKS
GARY*          PTSUNNY   75  68  78 NE7       29.98F
MICHIGAN CITY* NOT AVBL
RENSSELAER*    NOT AVBL
VALPARAISO     CLOUDY    74  65  73 N10       29.97F
$$

LMZ740>746-310000-
SOUTHERN LAKE MICHIGAN

STATION/POSITION TIME  SKY/WX   TEMP WIND        PRES    VSBY
                                AIR  DIR/SP/G
                 (UTC)          (F)  (DEG/KT/KT) (MB)    (MI)
HARRISON CRIB    2200            72   20/ 16/ 17   N/A
BURNHAM HARBOR   2300            72  340/  8/ 13   N/A
CALUMET HARBOR   2200            72                N/A
BURNS HARBOR     2211            70   30/ 12/ 14 1015.6S
MICHIGAN CITY    2200            70  360/ 12/ 13   N/A
$$

ABBREVIATIONS USED IN REMARKS
   TC - TEMPERATURE IN CELSIUS
  WCI - WIND CHILL INDEX
   HX - HEAT INDEX
  VSB - VISIBILITY
$$




USA.gov is the U.S. government's official web portal to all federal, state and local government web resources and services.